Time,TemperatureF,DewpointF,PressureIn,WindDirection,WindDirectionDegrees,WindSpeedMPH,WindSpeedGustMPH,Humidity,HourlyPrecipIn,Conditions,Clouds,dailyrainin,SolarRadiationWatts/m^2,SoftwareType,DateUTC
2013-01-08 00:02:00,29.1,25.0,30.19,South,191,11.0,-999.0,83,-99.99,,,0.00,0,weatherlink.com 1.10,2013-01-08 05:02:00,
2013-01-08 00:17:00,29.2,25.0,30.19,SSW,195,10.0,-999.0,83,-99.99,,,0.00,0,weatherlink.com 1.10,2013-01-08 05:17:00,
2013-01-08 00:32:00,29.0,25.0,30.19,SSW,197,5.0,-999.0,83,-99.99,,,0.00,0,weatherlink.com 1.10,2013-01-08 05:32:00,
2013-01-08 00:47:00,29.3,24.0,30.19,SSW,203,7.0,-999.0,82,-99.99,,,0.00,0,weatherlink.com 1.10,2013-01-08 05:47:00,
2013-01-08 01:02:00,29.4,25.0,30.19,SSW,197,6.0,-999.0,82,-99.99,,,0.00,0,weatherlink.com 1.10,2013-01-08 06:02:00,
2013-01-08 01:17:00,29.4,25.0,30.20,SW,218,4.0,-999.0,82,-99.99,,,0.00,0,weatherlink.com 1.10,2013-01-08 06:17:00,
2013-01-08 01:32:00,29.3,24.0,30.20,SSW,207,4.0,-999.0,82,-99.99,,,0.00,0,weatherlink.com 1.10,2013-01-08 06:32:00,
2013-01-08 01:47:00,29.1,25.0,30.21,SW,228,6.0,-999.0,83,-99.99,,,0.00,0,weatherlink.com 1.10,2013-01-08 06:47:00,
2013-01-08 02:02:00,29.2,24.0,30.21,SW,222,2.0,-999.0,82,-99.99,,,0.00,0,weatherlink.com 1.10,2013-01-08 07:02:00,
2013-01-08 02:17:00,28.4,24.0,30.22,SW,219,4.0,-999.0,82,-99.99,,,0.00,0,weatherlink.com 1.10,2013-01-08 07:17:00,
2013-01-08 02:32:00,28.2,24.0,30.22,SSW,207,6.0,-999.0,83,-99.99,,,0.00,0,weatherlink.com 1.10,2013-01-08 07:32:00,
2013-01-08 02:47:00,27.2,23.0,30.22,South,187,6.0,-999.0,84,-99.99,,,0.00,0,weatherlink.com 1.10,2013-01-08 07:47:00,
2013-01-08 03:02:00,26.2,22.0,30.22,South,182,9.0,-999.0,84,-99.99,,,0.00,0,weatherlink.com 1.10,2013-01-08 08:02:00,
2013-01-08 03:17:00,25.4,22.0,30.22,South,189,7.0,-999.0,85,-99.99,,,0.00,0,weatherlink.com 1.10,2013-01-08 08:17:00,
2013-01-08 03:32:00,25.8,22.0,30.21,SSW,194,6.0,-999.0,85,-99.99,,,0.00,0,weatherlink.com 1.10,2013-01-08 08:32:00,
2013-01-08 04:02:00,25.1,22.0,30.21,South,180,5.0,-999.0,87,-99.99,,,0.00,0,weatherlink.com 1.10,2013-01-08 09:02:00,
2013-01-08 04:17:00,26.1,23.0,30.21,South,186,3.0,-999.0,87,-99.99,,,0.00,0,weatherlink.com 1.10,2013-01-08 09:17:00,
2013-01-08 04:32:00,25.3,22.0,30.21,South,185,5.0,-999.0,86,-99.99,,,0.00,0,weatherlink.com 1.10,2013-01-08 09:32:00,
2013-01-08 04:47:00,26.3,23.0,30.21,South,183,5.0,-999.0,87,-99.99,,,0.00,0,weatherlink.com 1.10,2013-01-08 09:47:00,
2013-01-08 05:02:00,25.9,22.0,30.21,South,181,4.0,-999.0,86,-99.99,,,0.00,0,weatherlink.com 1.10,2013-01-08 10:02:00,
2013-01-08 05:17:00,25.9,23.0,30.20,South,181,5.0,-999.0,87,-99.99,,,0.00,0,weatherlink.com 1.10,2013-01-08 10:17:00,
2013-01-08 05:32:00,25.0,22.0,30.21,South,179,3.0,-999.0,87,-99.99,,,0.00,0,weatherlink.com 1.10,2013-01-08 10:32:00,
2013-01-08 05:47:00,24.8,22.0,30.20,South,188,4.0,-999.0,87,-99.99,,,0.00,0,weatherlink.com 1.10,2013-01-08 10:47:00,
2013-01-08 06:02:00,24.5,22.0,30.21,South,181,6.0,-999.0,88,-99.99,,,0.00,0,weatherlink.com 1.10,2013-01-08 11:02:00,
2013-01-08 06:17:00,24.1,21.0,30.21,South,183,5.0,-999.0,86,-99.99,,,0.00,0,weatherlink.com 1.10,2013-01-08 11:17:00,
2013-01-08 06:32:00,23.5,21.0,30.21,South,184,5.0,-999.0,88,-99.99,,,0.00,0,weatherlink.com 1.10,2013-01-08 11:32:00,
2013-01-08 06:47:00,23.6,21.0,30.21,South,182,3.0,-999.0,88,-99.99,,,0.00,0,weatherlink.com 1.10,2013-01-08 11:47:00,
2013-01-08 07:02:00,23.7,21.0,30.21,South,189,4.0,-999.0,89,-99.99,,,0.00,0,weatherlink.com 1.10,2013-01-08 12:02:00,
2013-01-08 07:17:00,24.0,21.0,30.21,South,189,3.0,-999.0,89,-99.99,,,0.00,0,weatherlink.com 1.10,2013-01-08 12:17:00,
2013-01-08 07:32:00,23.8,21.0,30.21,South,173,3.0,-999.0,88,-99.99,,,0.00,0,weatherlink.com 1.10,2013-01-08 12:32:00,
2013-01-08 07:47:00,24.2,21.0,30.22,South,182,4.0,-999.0,88,-99.99,,,0.00,0,weatherlink.com 1.10,2013-01-08 12:47:00,
2013-01-08 08:02:00,24.0,21.0,30.22,SSE,164,2.0,-999.0,88,-99.99,,,0.00,0,weatherlink.com 1.10,2013-01-08 13:02:00,
2013-01-08 08:17:00,24.2,21.0,30.23,South,180,3.0,-999.0,88,-99.99,,,0.00,9,weatherlink.com 1.10,2013-01-08 13:17:00,
2013-01-08 08:32:00,24.1,21.0,30.24,South,180,3.0,-999.0,88,-99.99,,,0.00,16,weatherlink.com 1.10,2013-01-08 13:32:00,
2013-01-08 08:47:00,23.7,20.0,30.25,SSE,168,2.0,-999.0,87,-99.99,,,0.00,23,weatherlink.com 1.10,2013-01-08 13:47:00,
2013-01-08 09:02:00,24.6,22.0,30.25,South,169,4.0,-999.0,88,-99.99,,,0.00,54,weatherlink.com 1.10,2013-01-08 14:02:00,
2013-01-08 09:17:00,25.8,22.0,30.25,South,180,6.0,-999.0,86,-99.99,,,0.00,77,weatherlink.com 1.10,2013-01-08 14:17:00,
2013-01-08 09:32:00,26.7,23.0,30.25,South,185,9.0,-999.0,87,-99.99,,,0.00,123,weatherlink.com 1.10,2013-01-08 14:32:00,
2013-01-08 09:47:00,27.8,24.0,30.25,SSW,196,7.0,-999.0,86,-99.99,,,0.00,179,weatherlink.com 1.10,2013-01-08 14:47:00,
2013-01-08 10:02:00,28.7,25.0,30.27,SSW,194,7.0,-999.0,85,-99.99,,,0.00,232,weatherlink.com 1.10,2013-01-08 15:02:00,
2013-01-08 10:17:00,29.3,25.0,30.27,South,189,9.0,-999.0,84,-99.99,,,0.00,257,weatherlink.com 1.10,2013-01-08 15:17:00,
2013-01-08 10:32:00,29.8,26.0,30.27,SSW,198,8.0,-999.0,84,-99.99,,,0.00,221,weatherlink.com 1.10,2013-01-08 15:32:00,
2013-01-08 10:47:00,30.1,26.0,30.27,South,185,8.0,-999.0,83,-99.99,,,0.00,204,weatherlink.com 1.10,2013-01-08 15:47:00,
2013-01-08 11:02:00,30.1,26.0,30.27,South,187,6.0,-999.0,83,-99.99,,,0.00,186,weatherlink.com 1.10,2013-01-08 16:02:00,
2013-01-08 11:17:00,30.5,26.0,30.27,SSW,192,7.0,-999.0,83,-99.99,,,0.00,267,weatherlink.com 1.10,2013-01-08 16:17:00,
2013-01-08 11:32:00,31.7,27.0,30.26,South,189,5.0,-999.0,82,-99.99,,,0.00,251,weatherlink.com 1.10,2013-01-08 16:32:00,
2013-01-08 11:47:00,32.4,28.0,30.25,South,181,6.0,-999.0,82,-99.99,,,0.00,302,weatherlink.com 1.10,2013-01-08 16:47:00,
2013-01-08 12:02:00,33.3,28.0,30.24,South,189,5.0,-999.0,81,-99.99,,,0.00,285,weatherlink.com 1.10,2013-01-08 17:02:00,
2013-01-08 12:17:00,34.2,29.0,30.23,South,187,8.0,-999.0,80,-99.99,,,0.00,276,weatherlink.com 1.10,2013-01-08 17:17:00,
2013-01-08 12:32:00,34.7,29.0,30.23,South,182,5.0,-999.0,79,-99.99,,,0.00,274,weatherlink.com 1.10,2013-01-08 17:32:00,
2013-01-08 12:47:00,35.3,29.0,30.23,South,189,8.0,-999.0,79,-99.99,,,0.00,288,weatherlink.com 1.10,2013-01-08 17:47:00,
2013-01-08 13:02:00,36.2,30.0,30.22,SSW,193,9.0,-999.0,77,-99.99,,,0.00,366,weatherlink.com 1.10,2013-01-08 18:02:00,
2013-01-08 13:17:00,36.8,30.0,30.22,South,183,10.0,-999.0,76,-99.99,,,0.00,471,weatherlink.com 1.10,2013-01-08 18:17:00,
2013-01-08 13:32:00,36.7,29.0,30.22,South,177,11.0,-999.0,75,-99.99,,,0.00,325,weatherlink.com 1.10,2013-01-08 18:32:00,
2013-01-08 13:47:00,36.5,30.0,30.21,South,181,10.0,-999.0,76,-99.99,,,0.00,306,weatherlink.com 1.10,2013-01-08 18:47:00,
2013-01-08 14:02:00,36.9,30.0,30.21,SSE,156,4.0,-999.0,76,-99.99,,,0.00,287,weatherlink.com 1.10,2013-01-08 19:02:00,
2013-01-08 14:17:00,37.6,30.0,30.21,SSE,156,6.0,-999.0,74,-99.99,,,0.00,568,weatherlink.com 1.10,2013-01-08 19:17:00,
2013-01-08 14:32:00,38.5,30.0,30.21,SSE,168,6.0,-999.0,72,-99.99,,,0.00,473,weatherlink.com 1.10,2013-01-08 19:32:00,
2013-01-08 14:47:00,39.0,31.0,30.21,South,173,6.0,-999.0,72,-99.99,,,0.00,459,weatherlink.com 1.10,2013-01-08 19:47:00,
2013-01-08 15:02:00,39.1,31.0,30.21,South,183,7.0,-999.0,72,-99.99,,,0.00,362,weatherlink.com 1.10,2013-01-08 20:02:00,
2013-01-08 15:17:00,39.1,31.0,30.21,South,169,7.0,-999.0,73,-99.99,,,0.00,302,weatherlink.com 1.10,2013-01-08 20:17:00,
2013-01-08 15:33:00,39.3,31.0,30.21,South,173,7.0,-999.0,71,-99.99,,,0.00,149,weatherlink.com 1.10,2013-01-08 20:33:00,
2013-01-08 15:48:00,38.6,31.0,30.22,South,169,7.0,-999.0,74,-99.99,,,0.00,243,weatherlink.com 1.10,2013-01-08 20:48:00,
2013-01-08 16:03:00,38.3,31.0,30.21,South,171,7.0,-999.0,75,-99.99,,,0.00,139,weatherlink.com 1.10,2013-01-08 21:03:00,
2013-01-08 16:18:00,39.2,31.0,30.21,South,171,7.0,-999.0,71,-99.99,,,0.00,192,weatherlink.com 1.10,2013-01-08 21:18:00,
2013-01-08 16:33:00,38.9,30.0,30.21,SSE,167,7.0,-999.0,71,-99.99,,,0.00,116,weatherlink.com 1.10,2013-01-08 21:33:00,
2013-01-08 16:48:00,38.4,30.0,30.21,SSE,164,8.0,-999.0,73,-99.99,,,0.00,72,weatherlink.com 1.10,2013-01-08 21:48:00,
2013-01-08 17:03:00,38.0,30.0,30.20,SSE,167,6.0,-999.0,74,-99.99,,,0.00,40,weatherlink.com 1.10,2013-01-08 22:03:00,
2013-01-08 17:18:00,37.6,30.0,30.20,South,174,7.0,-999.0,74,-99.99,,,0.00,16,weatherlink.com 1.10,2013-01-08 22:18:00,
2013-01-08 17:33:00,36.6,30.0,30.20,SSE,161,6.0,-999.0,76,-99.99,,,0.00,5,weatherlink.com 1.10,2013-01-08 22:33:00,
2013-01-08 17:48:00,35.9,29.0,30.20,SSE,161,6.0,-999.0,77,-99.99,,,0.00,0,weatherlink.com 1.10,2013-01-08 22:48:00,
2013-01-08 18:03:00,35.1,29.0,30.20,SSE,157,5.0,-999.0,78,-99.99,,,0.00,0,weatherlink.com 1.10,2013-01-08 23:03:00,
2013-01-08 18:18:00,34.6,29.0,30.20,SSE,162,5.0,-999.0,79,-99.99,,,0.00,0,weatherlink.com 1.10,2013-01-08 23:18:00,
2013-01-08 18:33:00,34.2,29.0,30.21,SSE,164,6.0,-999.0,80,-99.99,,,0.00,0,weatherlink.com 1.10,2013-01-08 23:33:00,
2013-01-08 18:48:00,34.8,29.0,30.21,SSE,163,8.0,-999.0,79,-99.99,,,0.00,0,weatherlink.com 1.10,2013-01-08 23:48:00,
2013-01-08 19:03:00,34.7,29.0,30.21,SSE,164,5.0,-999.0,79,-99.99,,,0.00,0,weatherlink.com 1.10,2013-01-09 00:03:00,
2013-01-08 19:18:00,34.5,29.0,30.20,SSE,160,6.0,-999.0,80,-99.99,,,0.00,0,weatherlink.com 1.10,2013-01-09 00:18:00,
2013-01-08 19:33:00,35.1,30.0,30.20,SSE,164,5.0,-999.0,80,-99.99,,,0.00,0,weatherlink.com 1.10,2013-01-09 00:33:00,
2013-01-08 19:48:00,35.1,30.0,30.19,SSE,166,8.0,-999.0,80,-99.99,,,0.00,0,weatherlink.com 1.10,2013-01-09 00:48:00,
2013-01-08 20:03:00,34.8,30.0,30.20,SSE,163,6.0,-999.0,81,-99.99,,,0.00,0,weatherlink.com 1.10,2013-01-09 01:03:00,
2013-01-08 20:18:00,34.8,30.0,30.20,South,190,10.0,-999.0,81,-99.99,,,0.00,0,weatherlink.com 1.10,2013-01-09 01:18:00,
2013-01-08 20:33:00,35.3,30.0,30.20,South,170,8.0,-999.0,80,-99.99,,,0.00,0,weatherlink.com 1.10,2013-01-09 01:33:00,
2013-01-08 20:48:00,35.2,30.0,30.20,South,169,7.0,-999.0,80,-99.99,,,0.00,0,weatherlink.com 1.10,2013-01-09 01:48:00,
2013-01-08 21:03:00,34.6,29.0,30.20,South,185,10.0,-999.0,81,-99.99,,,0.00,0,weatherlink.com 1.10,2013-01-09 02:03:00,
2013-01-08 21:18:00,35.3,29.0,30.19,South,183,12.0,-999.0,79,-99.99,,,0.00,0,weatherlink.com 1.10,2013-01-09 02:18:00,
2013-01-08 21:33:00,35.4,30.0,30.18,South,183,10.0,-999.0,79,-99.99,,,0.00,0,weatherlink.com 1.10,2013-01-09 02:33:00,
2013-01-08 21:48:00,35.1,29.0,30.18,South,187,6.0,-999.0,79,-99.99,,,0.00,0,weatherlink.com 1.10,2013-01-09 02:48:00,
2013-01-08 22:03:00,34.6,29.0,30.18,SSW,195,8.0,-999.0,80,-99.99,,,0.00,0,weatherlink.com 1.10,2013-01-09 03:03:00,
2013-01-08 22:17:00,34.6,29.0,30.18,South,188,9.0,-999.0,80,-99.99,,,0.00,0,weatherlink.com 1.10,2013-01-09 03:17:00,
2013-01-08 22:32:00,34.1,29.0,30.18,SSW,192,7.0,-999.0,80,-99.99,,,0.00,0,weatherlink.com 1.10,2013-01-09 03:32:00,
2013-01-08 22:47:00,33.5,28.0,30.18,South,186,7.0,-999.0,80,-99.99,,,0.00,0,weatherlink.com 1.10,2013-01-09 03:47:00,
2013-01-08 23:02:00,33.5,28.0,30.18,South,191,7.0,-999.0,81,-99.99,,,0.00,0,weatherlink.com 1.10,2013-01-09 04:02:00,
2013-01-08 23:17:00,33.7,28.0,30.18,South,189,9.0,-999.0,81,-99.99,,,0.00,0,weatherlink.com 1.10,2013-01-09 04:17:00,
2013-01-08 23:32:00,33.8,29.0,30.18,South,183,10.0,-999.0,82,-99.99,,,0.00,0,weatherlink.com 1.10,2013-01-09 04:32:00,
2013-01-08 23:47:00,34.3,29.0,30.17,South,183,11.0,-999.0,80,-99.99,,,0.00,0,weatherlink.com 1.10,2013-01-09 04:47:00,